This is the latest recevied weather packets stored in our database for station/object K7KAR-2. If no packets are shown the sender has not sent any weather packets the latest 10 day(s).
| Time | Temp. | Humidity | Pressure | Rain* | Wind** | Luminosity | Snow |
|---|---|---|---|---|---|---|---|
| 1777726498 | 5.56° C | 41% | 1016.3 hPa | 0 mm | - | 93 W/m² | - |
| 1777726195 | 5° C | 41% | 1016.4 hPa | 0 mm | - | 77 W/m² | - |
| 1777725891 | 5° C | 42% | 1016.1 hPa | 0 mm | - | 58 W/m² | - |
| 1777725589 | 4.44° C | 42% | 1016.1 hPa | 0 mm | - | 52 W/m² | - |
| 1777725286 | 4.44° C | 43% | 1016 hPa | 0 mm | - | 39 W/m² | - |
| 1777724983 | 4.44° C | 42% | 1016 hPa | 0 mm | - | 33 W/m² | - |
| 1777724679 | 4.44° C | 42% | 1015.8 hPa | 0 mm | - | 21 W/m² | - |
| 1777724378 | 4.44° C | 42% | 1015.8 hPa | 0 mm | - | 15 W/m² | - |
| 1777724075 | 3.89° C | 43% | 1015.8 hPa | 0 mm | - | 11 W/m² | - |
| 1777723773 | 3.89° C | 44% | 1016 hPa | 0 mm | - | 6 W/m² | - |
| 1777723468 | 3.89° C | 45% | 1016 hPa | 0 mm | - | 3 W/m² | - |
| 1777723166 | 3.89° C | 45% | 1016 hPa | 0 mm | - | 2 W/m² | - |
| 1777722863 | 3.89° C | 45% | 1015.9 hPa | 0 mm | - | 0 W/m² | - |
| 1777722558 | 3.89° C | 45% | 1016.1 hPa | 0 mm | - | 0 W/m² | - |
| 1777722256 | 3.89° C | 44% | 1016 hPa | 0 mm | - | 0 W/m² | - |
| 1777721953 | 3.89° C | 46% | 1016 hPa | 0 mm | - | 0 W/m² | - |
| 1777721650 | 3.89° C | 46% | 1015.9 hPa | 0 mm | - | 0 W/m² | - |
| 1777721349 | 3.89° C | 45% | 1016 hPa | 0 mm | - | 0 W/m² | - |
| 1777721046 | 3.89° C | 46% | 1016 hPa | 0 mm | - | 0 W/m² | - |
| 1777720743 | 4.44° C | 45% | 1015.9 hPa | 0 mm | - | 0 W/m² | - |
| 1777720440 | 3.89° C | 47% | 1016 hPa | 0 mm | - | 0 W/m² | - |
| 1777720138 | 3.89° C | 49% | 1015.9 hPa | 0 mm | - | 0 W/m² | - |
| 1777719836 | 3.89° C | 49% | 1016 hPa | 0 mm | - | 0 W/m² | - |
| 1777719533 | 3.89° C | 49% | 1015.9 hPa | 0 mm | - | 0 W/m² | - |
| 1777719230 | 3.33° C | 51% | 1015.8 hPa | 0 mm | - | 0 W/m² | - |
* Rain latest hour (hover to see other rain measurements)
** Current wind speed in m/s (hover to see current wind gust speed)